TimePST,TemperatureF,Dew PointF,Humidity,Sea Level PressureIn,VisibilityMPH,Wind Direction,Wind SpeedMPH,Gust SpeedMPH,PrecipitationIn,Events,Conditions,WindDirDegrees,DateUTC
12:53 AM,63.0,36.0,37,29.98,10.0,West,6.9,-,N/A,,Clear,260,2012-11-06 08:53:00
1:53 AM,60.1,37.9,44,29.98,10.0,WSW,5.8,-,N/A,,Clear,250,2012-11-06 09:53:00
2:53 AM,61.0,35.1,38,29.97,10.0,West,6.9,-,N/A,,Clear,260,2012-11-06 10:53:00
3:53 AM,62.1,33.1,34,29.97,10.0,Calm,Calm,-,N/A,,Clear,0,2012-11-06 11:53:00
4:53 AM,57.9,35.1,42,29.98,10.0,WSW,4.6,-,N/A,,Clear,240,2012-11-06 12:53:00
5:53 AM,59.0,35.1,41,29.99,10.0,WSW,4.6,-,N/A,,Clear,250,2012-11-06 13:53:00
6:53 AM,61.0,34.0,36,30.02,10.0,WSW,3.5,-,N/A,,Clear,250,2012-11-06 14:53:00
7:53 AM,69.1,42.1,38,30.03,10.0,West,3.5,-,N/A,,Clear,270,2012-11-06 15:53:00
8:53 AM,75.9,42.1,30,30.03,10.0,West,4.6,-,N/A,,Clear,270,2012-11-06 16:53:00
9:53 AM,82.0,43.0,25,30.03,10.0,NW,3.5,-,N/A,,Clear,310,2012-11-06 17:53:00
10:53 AM,86.0,35.1,16,30.01,10.0,West,3.5,-,N/A,,Clear,270,2012-11-06 18:53:00
11:53 AM,89.1,35.1,15,29.97,10.0,Calm,Calm,-,N/A,,Clear,0,2012-11-06 19:53:00
12:53 PM,91.0,35.1,14,29.95,10.0,WNW,3.5,-,N/A,,Clear,300,2012-11-06 20:53:00
1:53 PM,93.0,33.1,12,29.93,10.0,Variable,5.8,-,N/A,,Clear,0,2012-11-06 21:53:00
2:53 PM,93.0,34.0,12,29.92,10.0,Variable,3.5,-,N/A,,Clear,0,2012-11-06 22:53:00
3:53 PM,90.0,35.1,14,29.91,10.0,East,3.5,-,N/A,,Clear,100,2012-11-06 23:53:00
4:53 PM,82.9,45.0,26,29.91,10.0,Calm,Calm,-,N/A,,Clear,0,2012-11-07 00:53:00
5:53 PM,79.0,44.1,29,29.92,10.0,SSW,4.6,-,N/A,,Clear,210,2012-11-07 01:53:00
6:53 PM,73.0,45.0,37,29.92,10.0,SW,3.5,-,N/A,,Clear,220,2012-11-07 02:53:00
7:53 PM,70.0,45.0,41,29.94,10.0,WSW,3.5,-,N/A,,Clear,250,2012-11-07 03:53:00
8:53 PM,66.9,44.1,44,29.95,10.0,Calm,Calm,-,N/A,,Clear,0,2012-11-07 04:53:00
9:53 PM,68.0,37.9,33,29.94,10.0,West,4.6,-,N/A,,Clear,260,2012-11-07 05:53:00
10:53 PM,66.9,39.9,37,29.95,10.0,West,4.6,-,N/A,,Clear,260,2012-11-07 06:53:00
11:53 PM,62.1,37.9,41,29.95,10.0,Calm,Calm,-,N/A,,Clear,0,2012-11-07 07:53:00